This is the latest recevied weather packets stored in our database for station/object KC1IUC-13. If no packets are shown the sender has not sent any weather packets the latest 10 day(s).
| Time | Temp. | Humidity | Pressure | Rain* | Wind** | Luminosity | Snow |
|---|---|---|---|---|---|---|---|
| 1777834804 | 14.44° C | 48% | 1005.9 hPa | 0 mm | - | 631 W/m² | - |
| 1777834444 | 14.44° C | 49% | 1005.9 hPa | 0 mm | - | 719 W/m² | - |
| 1777833904 | 12.22° C | 48% | 1005.9 hPa | 0 mm | - | 516 W/m² | - |
| 1777833364 | 12.22° C | 48% | 1005.9 hPa | 0 mm | - | 175 W/m² | - |
| 1777832824 | 12.78° C | 49% | 1005.9 hPa | 0 mm | - | 184 W/m² | - |
| 1777832284 | 12.22° C | 48% | 1005.9 hPa | 0 mm | - | 170 W/m² | - |
| 1777831744 | 12.22° C | 49% | 1005.9 hPa | 0 mm | - | 177 W/m² | - |
| 1777831204 | 12.78° C | 49% | 1005.9 hPa | 0 mm | - | 176 W/m² | - |
| 1777830844 | 12.78° C | 50% | 1005.9 hPa | 0 mm | - | 233 W/m² | - |
| 1777830304 | 12.22° C | 50% | 1005.6 hPa | 0 mm | - | 428 W/m² | - |
| 1777829764 | 12.78° C | 51% | 1005.9 hPa | 0 mm | - | 174 W/m² | - |
| 1777829224 | 11.67° C | 51% | 1005.9 hPa | 0 mm | - | 413 W/m² | - |
| 1777828684 | 11.11° C | 51% | 1005.9 hPa | 0 mm | - | 169 W/m² | - |
| 1777828144 | 11.67° C | 52% | 1005.9 hPa | 0 mm | - | 140 W/m² | - |
| 1777827604 | 12.78° C | 54% | 1005.9 hPa | 0 mm | - | 195 W/m² | - |
| 1777827244 | 11.67° C | 55% | 1006.3 hPa | 0 mm | - | 271 W/m² | - |
| 1777826704 | 10° C | 54% | 1006.3 hPa | 0 mm | - | 206 W/m² | - |
| 1777826164 | 9.44° C | 53% | 1006.3 hPa | 0 mm | - | 125 W/m² | - |
| 1777825624 | 10° C | 53% | 1006.3 hPa | 0 mm | - | 101 W/m² | - |
| 1777825084 | 10° C | 53% | 1006.3 hPa | 0 mm | - | 70 W/m² | - |
| 1777824544 | 10.56° C | 54% | 1006.6 hPa | 0 mm | - | 103 W/m² | - |
| 1777824004 | 11.11° C | 54% | 1006.6 hPa | 0 mm | - | 151 W/m² | - |
| 1777823644 | 11.11° C | 55% | 1006.3 hPa | 0 mm | - | 236 W/m² | - |
| 1777823104 | 11.11° C | 54% | 1006.3 hPa | 0 mm | - | 192 W/m² | - |
| 1777822564 | 12.22° C | 56% | 1006.3 hPa | 0 mm | - | 157 W/m² | - |
* Rain latest hour (hover to see other rain measurements)
** Current wind speed in m/s (hover to see current wind gust speed)